Regional Weather Roundup
Issued by NWS

Home | Current Version | Previous Version | Text Only | Print | Product List | Glossary Off
Versions: 1 2 3 4 5 6 7 8 9 10 11 12 13 14 15 16 17 18 19 20 21 22 23 24 25 26 27 28 29 30 31 32 33 34 35 36 37 38 39 40 41 42 43 44 45 46 47 48 49 50

610
ASUS43 KLMK 250610
RWRKY
KENTUCKY REGIONAL WEATHER ROUNDUP
NATIONAL WEATHER SERVICE LOUISVILLE KY
200 AM EDT TUE JUL 25 2017

NOTE "FAIR" INDICATES FEW OR NO CLOUDS BELOW 12,000 FEET
WITH NO SIGNIFICANT WEATHER AND/OR OBSTRUCTIONS TO VISIBILITY.

KYZ001>023-026-027-061>063-070>075-250700-
WESTERN AND SOUTH CENTRAL KENTUCKY

CITY           SKY/WX    TMP DP  RH WIND       PRES   REMARKS
PADUCAH        PTCLDY    75  72  90 CALM      30.01R FOG
HENDERSON      PTCLDY    76  69  79 NE8       30.04R
OWENSBORO      PTCLDY    76  70  82 NE7       30.04R
HOPKINSVILLE   PTCLDY    77  74  90 CALM      30.02R
BOWLING GREEN  PTCLDY    78  72  81 CALM      30.03R
GLASGOW        CLEAR     74  74 100 CALM      30.04R
$$

KYZ024-025-028>034-038-045-046-053-250700-
NORTH CENTRAL KENTUCKY

CITY           SKY/WX    TMP DP  RH WIND       PRES   REMARKS
LOUISVILLE/SDF PTCLDY    76  65  68 NE7       30.06R
LOUISVILLE/LOU PTCLDY    76  67  73 NE8       30.07R
FORT KNOX      PTCLDY    73  66  78 NE7       30.05R
$$

KYZ035>037-039>044-047>052-055>060-089>105-250700-
NORTHEAST KENTUCKY

CITY           SKY/WX    TMP DP  RH WIND       PRES   REMARKS
LEXINGTON      MOCLDY    72  65  78 NE12      30.08R
COVINGTON      CLEAR     69  61  75 NE10      30.11R
FRANKFORT      CLOUDY    73  63  70 NE9       30.08R
$$

KYZ054-064>069-076>088-106>120-250700-
SOUTHEAST KENTUCKY

CITY           SKY/WX    TMP DP  RH WIND       PRES   REMARKS
JACKSON        CLOUDY    70  68  93 CALM      30.09S FOG
LONDON         CLOUDY    72  68  87 CALM      30.07S
SOMERSET       CLEAR     70  70 100 CALM      30.07S
MIDDLESBORO    CLEAR     69  69  98 CALM      30.08S
MONTICELLO     NOT AVBL
$$





USA.gov is the U.S. government's official web portal to all federal, state and local government web resources and services.